RH
88 90 91 90 88 85 83 84 83 87 90 73 62 61 59 59 63 72 65 73 74 83 86 88 85 84 86 85 88 91 91 89 91
90 92 92 90 88 85 83 88 88 89 87 67 59 57 57 62 76 80 85 92 90 89 88 92 95 93 92 94 86 84 91 96 96
89 91 91 89 89 84 83 93 88 91 71 61 56 55 58 65 83 84 79 76 80 80 77 76 87 85 87 88 93 89 93 96 91
86 91 90 89 88 84 84 90 94 92 61 59 56 54 57 69 77 72 69 79 77 77 80 82 82 83 83 84 91 94 91 96 95
86 88 90 87 86 86 85 87 91 81 60 57 50 60 62 64 72 70 71 72 79 82 79 75 78 78 80 80 84 86 94 94 97
81 85 87 86 85 84 88 90 91 66 55 53 55 53 66 68 68 70 75 72 73 79 75 82 83 78 76 81 81 80 86 92 92
75 78 88 84 82 83 86 87 61 60 58 62 57 55 62 68 73 73 77 81 77 74 75 76 71 76 77 79 80 82 82 83 86
72 77 87 81 82 83 81 52 66 58 62 61 56 56 66 72 73 81 73 73 74 72 77 73 77 78 79 80 81 81 82 82 82
68 78 82 80 86 85 53 61 66 65 61 61 48 57 67 68 69 68 74 74 75 75 74 76 76 76 81 81 80 82 82 82 80
64 73 78 74 77 79 50 60 53 59 55 49 47 56 68 70 70 76 81 84 81 80 80 78 74 80 75 80 81 81 79 82 79
58 61 64 60 61 67 58 52 52 50 46 45 48 53 64 71 73 76 76 85 89 83 78 79 78 77 76 78 79 80 81 80 78
51 54 53 47 47 47 47 51 51 50 46 46 48 52 58 69 73 67 54 65 57 84 87 84 83 78 74 83 77 82 84 91 90
43 45 43 43 44 45 46 49 52 51 47 48 50 53 55 57 60 60 58 54 39 57 93 94 91 88 81 78 87 85 82 88 88
42 42 45 45 44 44 46 50 54 54 52 55 56 52 55 56 56 55 54 55 51 46 51 48 64 92 92 89 86 85 84 84 83
45 45 46 48 48 50 52 53 56 57 58 59 54 56 57 57 57 55 54 55 60 64 64 62 60 55 70 78 75 71 71 72 74
48 48 49 51 51 51 52 54 55 59 59 62 61 58 56 54 53 52 55 58 57 56 59 64 65 66 47 38 40 63 64 66 67
50 50 51 51 47 46 49 51 58 60 61 70 62 77 60 55 54 54 53 53 57 58 58 54 54 50 35 37 17 10 59 64 67
54 52 52 52 48 43 46 51 60 67 64 62 59 78 81 62 53 51 53 52 52 56 52 45 39 41 40 32 21 9 35 67 66
57 56 51 51 51 45 46 51 59 61 64 62 53 50 56 79 80 55 50 52 45 53 46 45 41 42 44 33 24 11 40 63 64
58 56 53 52 51 48 49 54 59 60 62 60 52 49 52 52 68 85 65 53 40 44 45 41 46 47 41 35 36 21 23 61 61
Wind_Speed
14 15 15 16 17 17 17 17 19 19 19 20 18 16 21 18 17 16 18 18 16 18 20 19 18 17 17 18 16 18 17 16 15
15 16 16 17 18 18 18 18 19 18 18 20 18 21 19 18 17 19 20 22 21 21 19 19 20 20 20 21 17 15 17 17 17
15 16 17 18 18 19 18 18 18 17 20 20 21 21 20 18 23 25 21 18 16 16 15 13 16 17 17 16 19 15 17 19 16
16 17 18 19 19 19 19 18 18 17 21 19 16 20 19 19 20 18 16 14 15 16 15 15 15 15 16 14 15 19 15 18 18
17 19 19 19 19 19 19 18 17 19 21 19 21 19 15 15 20 19 16 15 15 16 17 17 15 15 16 15 14 14 16 14 15
19 19 21 20 21 21 19 18 18 21 21 22 16 17 21 19 19 17 14 14 14 14 15 15 15 15 15 15 15 14 12 14 13
16 21 22 21 21 21 19 18 20 21 21 15 13 18 20 20 19 15 14 15 14 14 14 14 14 14 14 14 15 15 14 13 14
21 23 22 22 22 21 19 21 21 20 18 13 10 17 21 22 18 17 15 14 14 14 14 13 13 13 13 14 14 14 14 14 14
22 25 24 24 24 23 22 22 20 17 12 8 16 16 18 18 17 16 15 14 14 14 14 13 13 13 14 14 14 13 13 13 13
22 25 24 25 23 22 24 15 18 17 14 15 15 16 19 21 17 15 15 16 14 13 13 13 13 13 14 14 14 14 13 12 13
25 27 25 24 24 23 19 20 19 17 18 18 16 17 19 15 14 14 13 15 15 13 13 13 13 13 13 14 14 14 13 13 13
26 27 25 23 24 23 21 22 19 20 20 19 17 16 17 18 12 13 12 11 11 14 14 13 13 13 12 13 12 12 13 13 12
23 25 25 25 23 23 24 24 24 21 21 21 19 18 15 16 15 13 10 10 10 13 14 15 14 13 13 12 13 12 11 13 13
25 24 24 25 25 23 25 25 26 25 22 21 20 17 17 16 16 15 14 9 8 12 11 10 11 14 13 12 12 11 12 12 12
24 25 25 25 26 24 25 25 24 24 23 22 19 16 14 15 12 12 12 12 10 8 7 7 8 8 10 13 13 13 12 13 13
25 25 25 25 26 27 26 26 27 26 26 24 20 15 12 13 13 11 10 9 8 8 8 7 8 5 7 9 11 13 14 13 13
27 28 29 27 26 27 28 27 27 27 31 18 18 3 6 10 11 11 10 8 8 8 6 6 6 1 5 7 10 11 13 13 13
28 29 30 28 27 29 27 29 27 25 25 31 6 3 3 11 10 12 10 9 9 6 5 4 5 3 4 6 9 11 11 11 12
27 28 29 28 28 30 30 30 28 34 25 29 7 5 14 3 2 11 12 10 9 7 7 3 3 3 3 6 9 11 11 11 12
28 29 30 30 30 31 31 31 26 33 28 20 13 8 9 8 5 3 9 10 10 9 7 6 2 2 4 7 9 12 11 11 12
Wind_Direction
145 141 138 134 130 128 126 120 119 119 117 117 113 97 96 89 90 87 93 85 81 80 75 72 70 70 70 70 64 58 60 56 59
148 143 139 135 133 130 127 125 123 120 120 118 105 102 101 106 105 96 92 88 82 77 76 72 72 71 68 65 66 66 60 55 66
150 144 140 137 135 133 130 127 126 122 125 119 108 107 106 98 103 93 89 84 82 76 78 81 67 66 63 63 57 68 59 57 60
150 146 142 139 136 135 132 130 124 125 130 125 111 107 111 101 97 98 89 85 82 80 79 76 71 68 64 65 64 60 62 59 57
151 146 144 142 138 137 134 131 129 131 131 120 108 101 109 105 97 94 91 89 87 84 83 78 76 71 67 66 67 58 57 59 55
154 147 146 145 142 140 137 132 136 135 132 130 122 101 108 107 103 98 98 91 88 84 79 79 75 70 66 66 62 62 60 56 52
161 156 151 151 145 144 142 140 136 138 137 134 110 102 113 105 105 104 102 92 87 82 79 76 73 70 65 64 63 61 61 55 54
162 156 156 152 148 146 156 140 135 146 140 121 117 116 118 114 114 108 101 97 89 82 80 75 73 69 63 63 64 60 58 57 54
163 160 161 156 152 157 153 149 149 151 143 130 128 121 124 124 120 116 108 101 94 87 79 75 73 70 66 64 63 60 57 56 52
164 164 165 162 162 160 161 159 152 155 153 137 138 123 120 133 135 128 117 97 93 88 81 78 75 78 67 64 62 60 57 57 51
168 168 169 168 171 167 165 160 155 154 144 139 138 128 127 128 141 133 125 118 97 85 80 80 78 76 71 67 60 59 57 54 47
174 166 169 172 169 170 164 158 155 149 146 139 133 131 127 129 127 133 122 119 107 94 90 87 82 77 68 64 60 55 52 48 48
172 171 171 167 169 167 165 164 153 148 147 140 139 134 135 133 130 118 113 112 103 105 101 94 87 80 73 65 56 49 40 34 29
173 175 168 171 167 168 162 155 155 150 149 139 133 135 136 136 142 142 134 117 109 99 90 90 90 82 77 68 56 43 35 30 24
176 172 173 170 165 161 158 158 156 157 145 136 132 137 132 139 143 136 141 139 120 104 86 66 65 66 69 60 51 43 33 28 19
174 176 175 173 169 167 166 167 162 153 149 131 120 121 132 138 142 148 143 140 132 122 131 106 81 71 44 53 47 37 28 21 16
173 172 171 172 171 171 169 168 155 150 153 141 123 101 115 150 157 155 158 150 145 143 136 131 135 99 53 40 32 27 27 19 13
178 177 175 172 175 173 174 171 161 153 154 158 154 147 179 146 166 166 167 166 163 173 157 143 125 98 47 30 23 17 25 22 14
179 180 181 178 179 176 178 177 173 167 165 178 192 110 139 163 144 187 182 175 166 168 155 145 125 105 59 17 8 8 15 13 10
183 183 179 179 181 180 179 179 178 182 180 180 166 160 146 150 141 160 173 181 166 161 171 146 148 54 32 360 356 358 358 3 3